BRX7255 ENBR-ENGM

Flight info

Callsign BRX7255
Flight time 0h 41m
Altitude 21000
Route GOKAB DCT ULVAN DCT ADOPI
Aircraft DH8D/M-SDE2E3FGRY/H

Departure

Time 2026-05-04 19:13
Airport Bergen Airport, Flesland (ENBR)

Arrival

Time 2026-05-04 19:54
Airport Oslo-Gardermoen International Airport (ENGM)
Time Latitude Longitude Altitude Speed Heading
2026-05-04 18:32 60.29092 5.22663 179 ft 0 kts 30°
2026-05-04 18:51 60.29093 5.22663 179 ft 0 kts 30°
2026-05-04 18:52 60.29092 5.22663 180 ft 0 kts 30°
2026-05-04 18:52 60.29084 5.22655 179 ft 2 kts 11°
2026-05-04 18:52 60.29069 5.22656 179 ft 2 kts 343°
2026-05-04 18:52 60.29057 5.22669 180 ft 2 kts 316°
2026-05-04 18:53 60.29048 5.22693 180 ft 2 kts 289°
2026-05-04 18:53 60.29046 5.22723 181 ft 2 kts 276°
2026-05-04 18:53 60.29045 5.22736 181 ft 0 kts 278°
2026-05-04 18:57 60.29047 5.22703 180 ft 5 kts 274°
2026-05-04 18:58 60.29042 5.22605 178 ft 8 kts 260°
2026-05-04 18:58 60.29031 5.22474 176 ft 10 kts 259°
2026-05-04 18:58 60.29016 5.22392 174 ft 6 kts 221°
2026-05-04 18:58 60.28968 5.22384 174 ft 2 kts 173°
2026-05-04 18:59 60.28944 5.22375 174 ft 4 kts 211°
2026-05-04 18:59 60.28921 5.22300 172 ft 7 kts 226°
2026-05-04 18:59 60.28871 5.22293 172 ft 6 kts 169°
2026-05-04 18:59 60.28825 5.22308 172 ft 7 kts 171°
2026-05-04 19:00 60.28767 5.22327 171 ft 9 kts 169°
2026-05-04 19:00 60.28696 5.22352 170 ft 11 kts 170°
2026-05-04 19:00 60.28630 5.22374 169 ft 9 kts 170°
2026-05-04 19:00 60.28584 5.22390 167 ft 7 kts 170°
2026-05-04 19:01 60.28522 5.22411 165 ft 9 kts 170°
2026-05-04 19:01 60.28460 5.22432 163 ft 3 kts 170°
2026-05-04 19:01 60.28421 5.22445 162 ft 7 kts 170°
2026-05-04 19:01 60.28360 5.22466 159 ft 9 kts 169°
2026-05-04 19:02 60.28302 5.22475 158 ft 7 kts 201°
2026-05-04 19:02 60.28280 5.22391 156 ft 5 kts 261°
2026-05-04 19:02 60.28278 5.22377 155 ft 0 kts 262°
2026-05-04 19:09 60.28278 5.22374 154 ft 2 kts 262°
2026-05-04 19:09 60.28280 5.22249 149 ft 12 kts 281°
2026-05-04 19:10 60.28319 5.22155 147 ft 3 kts 351°
2026-05-04 19:10 60.28320 5.22155 147 ft 0 kts 351°
2026-05-04 19:12 60.28326 5.22153 148 ft 6 kts 351°
2026-05-04 19:12 60.28613 5.22054 161 ft 89 kts 350°
2026-05-04 19:13 60.29469 5.21780 229 ft 148 kts 352°
2026-05-04 19:13 60.30477 5.21477 945 ft 151 kts 351°
2026-05-04 19:13 60.31521 5.21201 1793 ft 153 kts 353°
2026-05-04 19:13 60.32500 5.20957 2759 ft 149 kts 350°
2026-05-04 19:14 60.33667 5.20599 2924 ft 194 kts 350°
2026-05-04 19:14 60.35080 5.20139 3376 ft 214 kts 349°
2026-05-04 19:14 60.36571 5.19644 4035 ft 221 kts 349°
2026-05-04 19:14 60.38075 5.19140 4627 ft 226 kts 349°
2026-05-04 19:15 60.39630 5.18616 5255 ft 228 kts 348°
2026-05-04 19:15 60.41196 5.18090 5874 ft 230 kts 348°
2026-05-04 19:15 60.42768 5.17560 6522 ft 231 kts 348°
2026-05-04 19:15 60.44366 5.17021 7116 ft 234 kts 348°
2026-05-04 19:16 60.45958 5.16483 7730 ft 236 kts 347°
2026-05-04 19:16 60.47575 5.16245 8376 ft 241 kts
2026-05-04 19:16 60.49064 5.17877 8891 ft 260 kts 43°
2026-05-04 19:16 60.49829 5.21302 9410 ft 276 kts 75°
2026-05-04 19:17 60.50132 5.25211 9839 ft 287 kts 78°
2026-05-04 19:17 60.50147 5.29359 9996 ft 306 kts 101°
2026-05-04 19:17 60.49090 5.33110 10327 ft 313 kts 137°
2026-05-04 19:17 60.47243 5.35130 10766 ft 305 kts 168°
2026-05-04 19:18 60.45198 5.36104 10904 ft 313 kts 174°
2026-05-04 19:18 60.43154 5.36973 11156 ft 320 kts 174°
2026-05-04 19:18 60.40999 5.38034 11564 ft 325 kts 167°
2026-05-04 19:18 60.39100 5.40625 11962 ft 336 kts 137°
2026-05-04 19:19 60.37898 5.44752 12194 ft 345 kts 106°
2026-05-04 19:19 60.37686 5.49530 12481 ft 348 kts 83°
2026-05-04 19:19 60.38009 5.54333 12833 ft 349 kts 78°
2026-05-04 19:19 60.38351 5.59220 13210 ft 350 kts 79°
2026-05-04 19:20 60.38686 5.64215 13416 ft 356 kts 79°
2026-05-04 19:20 60.38958 5.68441 13737 ft 358 kts 80°
2026-05-04 19:20 60.39272 5.73435 14043 ft 361 kts 81°
2026-05-04 19:20 60.39585 5.78563 14332 ft 364 kts 81°
2026-05-04 19:21 60.39887 5.83653 14482 ft 373 kts 81°
2026-05-04 19:21 60.40187 5.88816 14896 ft 373 kts 81°
2026-05-04 19:21 60.40491 5.94080 15195 ft 376 kts 82°
2026-05-04 19:21 60.40791 5.99389 15256 ft 387 kts 81°
2026-05-04 19:22 60.41093 6.04810 15493 ft 390 kts 82°
2026-05-04 19:22 60.41395 6.10290 15742 ft 393 kts 81°
2026-05-04 19:22 60.41695 6.15780 15985 ft 396 kts 81°
2026-05-04 19:22 60.41998 6.21378 16260 ft 399 kts 82°
2026-05-04 19:23 60.42301 6.27031 16494 ft 401 kts 82°
2026-05-04 19:23 60.42603 6.32710 16736 ft 403 kts 81°
2026-05-04 19:23 60.42897 6.38279 16960 ft 406 kts 81°
2026-05-04 19:23 60.43161 6.44009 17229 ft 408 kts 85°
2026-05-04 19:24 60.43102 6.49706 17529 ft 408 kts 93°
2026-05-04 19:24 60.42941 6.55405 17815 ft 408 kts 92°
2026-05-04 19:24 60.42776 6.61150 18151 ft 408 kts 92°
2026-05-04 19:24 60.42608 6.66958 18502 ft 406 kts 94°
2026-05-04 19:25 60.42444 6.72622 18879 ft 404 kts 95°
2026-05-04 19:25 60.42279 6.78311 19218 ft 402 kts 95°
2026-05-04 19:25 60.42115 6.83878 19634 ft 400 kts 94°
2026-05-04 19:25 60.41949 6.89511 20007 ft 397 kts 95°
2026-05-04 19:26 60.41785 6.95035 20384 ft 394 kts 95°
2026-05-04 19:26 60.41618 7.00560 20698 ft 393 kts 94°
2026-05-04 19:26 60.41447 7.06121 20782 ft 400 kts 94°
2026-05-04 19:26 60.41270 7.11766 20781 ft 411 kts 94°
2026-05-04 19:27 60.41082 7.17654 20764 ft 420 kts 94°
2026-05-04 19:27 60.40891 7.23582 20737 ft 427 kts 95°
2026-05-04 19:27 60.40696 7.29566 20691 ft 432 kts 94°
2026-05-04 19:27 60.40493 7.35679 20691 ft 436 kts 95°
2026-05-04 19:28 60.40288 7.41790 20676 ft 438 kts 94°
2026-05-04 19:28 60.40079 7.47934 20672 ft 439 kts 95°
2026-05-04 19:28 60.39865 7.54131 20666 ft 440 kts 94°
2026-05-04 19:28 60.39650 7.60308 20669 ft 441 kts 95°
2026-05-04 19:29 60.39432 7.66474 20667 ft 442 kts 96°
2026-05-04 19:29 60.39222 7.72361 20654 ft 442 kts 96°
2026-05-04 19:29 60.38998 7.78542 20655 ft 442 kts 95°
2026-05-04 19:29 60.38774 7.84646 20661 ft 441 kts 95°
2026-05-04 19:30 60.38541 7.90917 20661 ft 441 kts 96°
2026-05-04 19:30 60.38312 7.97037 20681 ft 441 kts 96°
2026-05-04 19:30 60.38076 8.03251 20680 ft 440 kts 96°
2026-05-04 19:30 60.37841 8.09353 20677 ft 440 kts 96°
2026-05-04 19:31 60.37599 8.15554 20672 ft 441 kts 96°
2026-05-04 19:31 60.37357 8.21695 20667 ft 441 kts 96°
2026-05-04 19:31 60.37104 8.28040 20647 ft 441 kts 96°
2026-05-04 19:31 60.36858 8.34149 20646 ft 441 kts 96°
2026-05-04 19:32 60.36606 8.40338 20647 ft 441 kts 96°
2026-05-04 19:32 60.36350 8.46514 20649 ft 441 kts 96°
2026-05-04 19:32 60.36094 8.52654 20661 ft 441 kts 96°
2026-05-04 19:32 60.35837 8.58742 20656 ft 441 kts 96°
2026-05-04 19:33 60.35575 8.64872 20635 ft 436 kts 96°
2026-05-04 19:33 60.35330 8.70628 20656 ft 427 kts 97°
2026-05-04 19:33 60.35076 8.76566 20685 ft 420 kts 97°
2026-05-04 19:33 60.34817 8.82480 20415 ft 423 kts 97°
2026-05-04 19:34 60.34559 8.88351 20069 ft 421 kts 97°
2026-05-04 19:34 60.34296 8.94266 19675 ft 419 kts 97°
2026-05-04 19:34 60.34037 9.00063 19317 ft 413 kts 97°
2026-05-04 19:34 60.33778 9.05770 18938 ft 409 kts 97°
2026-05-04 19:35 60.33522 9.11413 18565 ft 406 kts 97°
2026-05-04 19:35 60.33557 9.17083 18249 ft 397 kts 83°
2026-05-04 19:35 60.33901 9.22540 17650 ft 398 kts 81°
2026-05-04 19:35 60.34286 9.28055 17312 ft 390 kts 80°
2026-05-04 19:36 60.34667 9.33392 16904 ft 386 kts 79°
2026-05-04 19:36 60.35052 9.38740 16431 ft 381 kts 79°
2026-05-04 19:36 60.35429 9.43961 15991 ft 377 kts 79°
2026-05-04 19:36 60.35808 9.49199 15535 ft 372 kts 79°
2026-05-04 19:37 60.36174 9.54257 15084 ft 367 kts 79°
2026-05-04 19:37 60.36538 9.59305 14626 ft 363 kts 79°
2026-05-04 19:37 60.36898 9.64322 14171 ft 358 kts 78°
2026-05-04 19:37 60.37258 9.69343 13723 ft 352 kts 79°
2026-05-04 19:38 60.37602 9.74174 13348 ft 347 kts 80°
2026-05-04 19:38 60.37944 9.78993 12966 ft 343 kts 80°
2026-05-04 19:38 60.38279 9.83735 12587 ft 339 kts 80°
2026-05-04 19:38 60.38611 9.88441 12178 ft 334 kts 79°
2026-05-04 19:39 60.38935 9.93061 11811 ft 330 kts 79°
2026-05-04 19:39 60.39251 9.97599 11434 ft 324 kts 79°
2026-05-04 19:39 60.39549 10.02099 11035 ft 317 kts 81°
2026-05-04 19:39 60.39807 10.06469 10639 ft 312 kts 81°
2026-05-04 19:40 60.40052 10.10759 10247 ft 306 kts 81°
2026-05-04 19:40 60.40283 10.14995 9857 ft 299 kts 81°
2026-05-04 19:40 60.40511 10.19097 9476 ft 294 kts 81°
2026-05-04 19:40 60.40747 10.23167 9071 ft 289 kts 81°
2026-05-04 19:41 60.40977 10.27134 8677 ft 285 kts 81°
2026-05-04 19:41 60.41204 10.31077 8281 ft 281 kts 81°
2026-05-04 19:41 60.41427 10.34961 7882 ft 276 kts 81°
2026-05-04 19:41 60.41647 10.38804 7492 ft 272 kts 81°
2026-05-04 19:42 60.41858 10.42529 7102 ft 267 kts 81°
2026-05-04 19:42 60.42071 10.46186 6707 ft 259 kts 81°
2026-05-04 19:42 60.42281 10.49771 6311 ft 251 kts 81°
2026-05-04 19:42 60.42478 10.53237 5912 ft 245 kts 81°
2026-05-04 19:43 60.42678 10.56615 5528 ft 244 kts 80°
2026-05-04 19:43 60.42875 10.60027 5162 ft 247 kts 81°
2026-05-04 19:43 60.43073 10.63499 4994 ft 244 kts 81°
2026-05-04 19:43 60.43263 10.66914 4938 ft 242 kts 82°
2026-05-04 19:44 60.43446 10.70312 4915 ft 244 kts 82°
2026-05-04 19:44 60.43633 10.73753 4909 ft 245 kts 82°
2026-05-04 19:44 60.43823 10.77189 4914 ft 246 kts 82°
2026-05-04 19:44 60.44118 10.80565 4897 ft 244 kts 67°
2026-05-04 19:45 60.45002 10.83376 4923 ft 237 kts 45°
2026-05-04 19:45 60.45898 10.86242 4912 ft 246 kts 70°
2026-05-04 19:45 60.46076 10.89704 4926 ft 246 kts 88°
2026-05-04 19:45 60.46111 10.93143 4923 ft 246 kts 86°
2026-05-04 19:46 60.46183 10.96611 4926 ft 244 kts 85°
2026-05-04 19:46 60.46288 11.00052 4924 ft 245 kts 84°
2026-05-04 19:46 60.46420 11.03489 4912 ft 243 kts 83°
2026-05-04 19:46 60.46524 11.06839 4901 ft 234 kts 92°
2026-05-04 19:47 60.45951 11.09801 4907 ft 222 kts 129°
2026-05-04 19:47 60.44951 11.12200 4925 ft 222 kts 133°
2026-05-04 19:47 60.43951 11.14559 4918 ft 222 kts 133°
2026-05-04 19:47 60.42947 11.16910 4915 ft 221 kts 133°
2026-05-04 19:48 60.41996 11.19334 4902 ft 220 kts 121°
2026-05-04 19:48 60.41444 11.22191 4910 ft 215 kts 111°
2026-05-04 19:48 60.40609 11.24561 4903 ft 206 kts 149°
2026-05-04 19:48 60.39323 11.25419 4911 ft 189 kts 187°
2026-05-04 19:49 60.38033 11.25293 4900 ft 183 kts 194°
2026-05-04 19:49 60.36837 11.24585 4806 ft 176 kts 209°
2026-05-04 19:49 60.35735 11.23666 4709 ft 166 kts 210°
2026-05-04 19:49 60.34698 11.22801 4593 ft 158 kts 211°
2026-05-04 19:50 60.33695 11.21900 4250 ft 158 kts 214°
2026-05-04 19:50 60.32738 11.20818 3937 ft 158 kts 220°
2026-05-04 19:50 60.31818 11.19726 3679 ft 152 kts 219°
2026-05-04 19:50 60.30881 11.18765 3324 ft 147 kts 213°
2026-05-04 19:51 60.29938 11.18069 2923 ft 149 kts 205°
2026-05-04 19:51 60.28963 11.17446 2632 ft 143 kts 206°
2026-05-04 19:51 60.27997 11.16831 2349 ft 146 kts 202°
2026-05-04 19:51 60.27010 11.16325 2164 ft 142 kts 203°
2026-05-04 19:52 60.26063 11.15782 2051 ft 140 kts 204°
2026-05-04 19:52 60.25114 11.15189 1898 ft 140 kts 205°
2026-05-04 19:52 60.24163 11.14593 1660 ft 147 kts 203°
2026-05-04 19:52 60.23157 11.14040 1385 ft 153 kts 203°
2026-05-04 19:53 60.22147 11.13443 1177 ft 151 kts 203°
2026-05-04 19:53 60.21146 11.12871 1005 ft 144 kts 201°
2026-05-04 19:53 60.20203 11.12314 763 ft 140 kts 200°
2026-05-04 19:53 60.19271 11.11756 703 ft 130 kts 197°
2026-05-04 19:54 60.18617 11.11382 709 ft 57 kts 195°
2026-05-04 19:54 60.18341 11.11222 708 ft 36 kts 197°
2026-05-04 19:54 60.18131 11.11066 698 ft 24 kts 213°
2026-05-04 19:54 60.18043 11.10888 692 ft 12 kts 251°
2026-05-04 19:55 60.18044 11.10782 691 ft 0 kts 286°
2026-05-04 19:55 60.18044 11.10781 691 ft 0 kts 287°
2026-05-04 19:55 60.18045 11.10774 691 ft 1 kts 287°
2026-05-04 19:55 60.18051 11.10740 691 ft 4 kts 291°
2026-05-04 19:56 60.18083 11.10689 692 ft 6 kts 349°
2026-05-04 19:56 60.18135 11.10705 694 ft 8 kts 14°
2026-05-04 19:56 60.18204 11.10746 697 ft 11 kts 17°
2026-05-04 19:56 60.18286 11.10796 700 ft 11 kts 14°
2026-05-04 19:57 60.18351 11.10826 702 ft 8 kts 11°
2026-05-04 19:57 60.18402 11.10858 704 ft 6 kts 20°
2026-05-04 19:57 60.18431 11.10878 705 ft 2 kts 18°
2026-05-04 19:57 60.18455 11.10892 706 ft 5 kts 14°
2026-05-04 19:58 60.18509 11.10917 705 ft 10 kts 13°
2026-05-04 19:58 60.18588 11.10962 705 ft 12 kts 17°
2026-05-04 19:58 60.18673 11.11015 705 ft 13 kts 17°
2026-05-04 19:58 60.18778 11.11077 704 ft 16 kts 15°
2026-05-04 19:59 60.18887 11.11139 706 ft 16 kts 17°
2026-05-04 19:59 60.18998 11.11203 705 ft 17 kts 15°
2026-05-04 19:59 60.19121 11.11274 704 ft 18 kts 16°
2026-05-04 19:59 60.19250 11.11349 705 ft 19 kts 15°
2026-05-04 20:00 60.19379 11.11424 702 ft 20 kts 15°
2026-05-04 20:00 60.19516 11.11502 702 ft 20 kts 16°
2026-05-04 20:00 60.19644 11.11576 699 ft 16 kts 15°
2026-05-04 20:00 60.19732 11.11556 698 ft 12 kts 294°
2026-05-04 20:01 60.19765 11.11402 698 ft 11 kts 299°
2026-05-04 20:01 60.19797 11.11250 697 ft 12 kts 285°
2026-05-04 20:01 60.19821 11.11059 693 ft 15 kts 286°
2026-05-04 20:01 60.19855 11.10843 689 ft 17 kts 284°
2026-05-04 20:02 60.19890 11.10595 685 ft 18 kts 286°
2026-05-04 20:02 60.19923 11.10359 684 ft 17 kts 286°
2026-05-04 20:02 60.19956 11.10123 682 ft 16 kts 286°
2026-05-04 20:02 60.19987 11.09907 682 ft 15 kts 286°
2026-05-04 20:03 60.20015 11.09716 684 ft 13 kts 285°
2026-05-04 20:03 60.20041 11.09533 685 ft 15 kts 286°
2026-05-04 20:03 60.20074 11.09297 685 ft 19 kts 285°
2026-05-04 20:03 60.20108 11.09061 688 ft 14 kts 286°
2026-05-04 20:04 60.20127 11.08910 689 ft 9 kts 261°
2026-05-04 20:04 60.20068 11.08838 689 ft 11 kts 195°
2026-05-04 20:04 60.19989 11.08793 689 ft 11 kts 195°
2026-05-04 20:04 60.19913 11.08750 689 ft 11 kts 196°
2026-05-04 20:05 60.19840 11.08707 689 ft 9 kts 194°
2026-05-04 20:05 60.19781 11.08720 688 ft 9 kts 126°
2026-05-04 20:05 60.19762 11.08852 688 ft 10 kts 107°
2026-05-04 20:05 60.19742 11.08972 686 ft 4 kts 115°
2026-05-04 20:06 60.19727 11.09001 686 ft 2 kts 160°
2026-05-04 20:06 60.19708 11.09004 686 ft 4 kts 180°
2026-05-04 20:06 60.19672 11.09016 686 ft 4 kts 162°
2026-05-04 20:06 60.19650 11.09031 685 ft 0 kts 163°
2026-05-04 20:07 60.19647 11.09032 685 ft 1 kts 164°
2026-05-04 20:07 60.19623 11.09045 685 ft 4 kts 165°
2026-05-04 20:07 60.19603 11.09056 684 ft 1 kts 165°
2026-05-04 20:08 60.19599 11.09058 684 ft 0 kts 165°